Wahoo, NE

6:23 AM CDT on July 29, 2016 (GMT -0500)
Wahoo Municipal

Weather History for KAHQ - February, 2013

Change the Weather History Date:

Tuesday, February 26, 2013

  Actual Average Record
Temperature  
Mean Temperature 28 °F -  
Max Temperature 31 °F 46 °F 66 °F (1976)
Min Temperature 24 °F 22 °F -1 °F (2014)
Degree Days  
Heating Degree Days 38    
Moisture  
Dew Point 25 °F    
Average Humidity 91    
Maximum Humidity 95    
Minimum Humidity 84    
Precipitation  
Precipitation 0.00 in - - ()
Sea Level Pressure  
Sea Level Pressure 29.86 in    
Wind  
Wind Speed 15 mph (North)    
Max Wind Speed 21 mph    
Max Gust Speed 25 mph    
Visibility 3 miles    
Events Snow    
Averages and records for this station are not official NWS values.
T = Trace of Precipitation, MM = Missing Value Source: NWS Daily Summary

Daily Weather History Graph

Daily Weather History Graph

Search for Another Location

Airport or City:

Trip Planner

Search our weather history database for the weather conditions in past years. The results will help you decide how hot, cold, wet, or windy it might be!

Date:

Astronomy

Feb. 26, 2013 Rise Set
Actual Time 7:04 AM CST 6:14 PM CST
Civil Twilight 6:37 AM CST 6:41 PM CST
Nautical Twilight 6:05 AM CST 7:13 PM CST
Astronomical Twilight 5:33 AM CST 7:45 PM CST
Moon 7:33 PM CST (2/26) 7:07 AM CST (2/26)
Length of Visible Light 12h 04m
Length of Day
11h 09m
Full, 99% of the Moon is Illuminated
Feb 26
Full
Mar 4
Last Quarter
Mar 11
New
Mar 19
First Quarter
Mar 27
Full

Hourly Weather History & Observations

Time (CST) Temp. Windchill Dew Point Humidity Pressure Visibility Wind Dir Wind Speed Gust Speed Precip Events Conditions
12:15 AM 27.5 °F 16.8 °F 25.7 °F 93% 29.92 in 4.0 mi North 12.7 mph - N/A   Overcast
12:35 AM 27.1 °F 15.9 °F 25.5 °F 94% 29.91 in 2.5 mi NNE 13.8 mph - N/A   Overcast
12:55 AM 27.1 °F 16.4 °F 25.5 °F 94% 29.90 in 4.0 mi North 12.7 mph - N/A   Overcast
1:15 AM 26.6 °F 13.8 °F 25.0 °F 94% 29.89 in 4.0 mi North 17.3 mph - N/A   Overcast
1:35 AM 26.2 °F 14.7 °F 24.6 °F 94% 29.89 in 4.0 mi North 13.8 mph - N/A   Overcast
1:55 AM 26.1 °F 13.6 °F 24.4 °F 94% 29.89 in 3.0 mi North 16.1 mph - N/A   Overcast
2:15 AM 25.7 °F 14.6 °F 24.1 °F 94% 29.89 in 3.0 mi North 12.7 mph - N/A   Overcast
2:35 AM 25.5 °F 13.8 °F 23.9 °F 94% 29.89 in 2.5 mi North 13.8 mph - N/A   Overcast
2:55 AM 25.5 °F 14.9 °F 23.9 °F 94% 29.88 in 2.5 mi North 11.5 mph - N/A   Overcast
3:15 AM 25.3 °F 13.6 °F 23.9 °F 94% 29.86 in 1.2 mi North 13.8 mph - N/A   Overcast
3:35 AM 25.2 °F 12.9 °F 23.9 °F 95% 29.87 in 1.8 mi North 15.0 mph - N/A   Overcast
3:55 AM 24.8 °F 11.9 °F 23.5 °F 95% 29.87 in 2.0 mi North 16.1 mph - N/A   Overcast
4:15 AM 24.6 °F 12.7 °F 23.0 °F 94% 29.87 in 2.5 mi North 13.8 mph - N/A   Overcast
4:35 AM 24.8 °F 12.4 °F 23.2 °F 94% 29.85 in 2.5 mi North 15.0 mph 20.7 mph N/A   Overcast
4:55 AM 24.6 °F 10.9 °F 23.2 °F 94% 29.86 in 2.5 mi North 18.4 mph - N/A   Overcast
5:15 AM 24.6 °F 11.3 °F 23.0 °F 94% 29.87 in 2.5 mi North 17.3 mph - N/A   Overcast
5:35 AM 24.6 °F 12.2 °F 23.0 °F 94% 29.87 in 2.5 mi North 15.0 mph - N/A   Overcast
6:15 AM 24.8 °F 12.9 °F 23.4 °F 94% 29.85 in 2.0 mi North 13.8 mph - N/A   Overcast
6:35 AM 25.2 °F 13.3 °F 23.7 °F 94% 29.85 in 2.0 mi North 13.8 mph - N/A   Overcast
6:55 AM 25.3 °F 13.1 °F 23.9 °F 94% 29.85 in 2.0 mi North 15.0 mph - N/A   Overcast
7:15 AM 25.5 °F 13.3 °F 23.9 °F 94% 29.84 in 1.8 mi NNW 15.0 mph - N/A   Overcast
7:35 AM 25.7 °F 13.5 °F 24.3 °F 94% 29.84 in 1.2 mi North 15.0 mph 20.7 mph N/A   Overcast
7:55 AM 25.7 °F 13.1 °F 24.3 °F 94% 29.85 in 1.2 mi North 16.1 mph - N/A   Overcast
8:15 AM 25.7 °F 12.3 °F 24.3 °F 94% 29.86 in 1.5 mi North 18.4 mph 21.9 mph N/A   Overcast
8:35 AM 25.7 °F 11.9 °F 24.3 °F 94% 29.87 in 1.5 mi North 19.6 mph - N/A   Overcast
8:55 AM 25.5 °F 12.4 °F 23.9 °F 94% 29.87 in 1.5 mi North 17.3 mph - N/A   Overcast
9:15 AM 25.5 °F 13.3 °F 23.9 °F 94% 29.87 in 1.5 mi North 15.0 mph - N/A   Overcast
9:35 AM 25.7 °F 13.5 °F 24.4 °F 95% 29.86 in 1.5 mi NNW 15.0 mph 23.0 mph N/A   Overcast
9:55 AM 25.7 °F 12.3 °F 24.4 °F 95% 29.87 in 1.5 mi North 18.4 mph - N/A   Overcast
10:15 AM 25.7 °F 12.3 °F 24.3 °F 94% 29.86 in 1.8 mi North 18.4 mph 23.0 mph N/A   Overcast
10:35 AM 25.7 °F 11.9 °F 24.3 °F 94% 29.86 in 1.8 mi North 19.6 mph 23.0 mph N/A   Overcast
10:55 AM 26.1 °F 12.3 °F 24.3 °F 93% 29.85 in 2.0 mi North 19.6 mph 24.2 mph N/A   Overcast
11:15 AM 26.6 °F 13.1 °F 24.3 °F 91% 29.85 in 2.0 mi North 19.6 mph - N/A   Overcast
11:35 AM 27.5 °F 15.9 °F 24.6 °F 89% 29.86 in 2.5 mi North 15.0 mph - N/A   Overcast
11:55 AM 28.0 °F 15.3 °F 24.8 °F 88% 29.85 in 2.5 mi North 18.4 mph 23.0 mph N/A   Overcast
12:15 PM 28.6 °F 16.4 °F 25.3 °F 88% 29.85 in 2.5 mi North 17.3 mph 25.3 mph N/A   Overcast
12:35 PM 28.9 °F 16.9 °F 25.5 °F 87% 29.84 in 2.5 mi North 17.3 mph - N/A   Overcast
12:55 PM 29.3 °F 17.7 °F 25.9 °F 87% 29.83 in 2.0 mi North 16.1 mph - N/A Snow Light Snow
1:15 PM 30.0 °F 18.3 °F 26.4 °F 86% 29.82 in 3.0 mi North 17.3 mph - N/A   Overcast
1:35 PM 30.0 °F 18.3 °F 26.4 °F 86% 29.81 in 3.0 mi North 17.3 mph - N/A   Overcast
1:55 PM 31.1 °F 20.1 °F 27.1 °F 85% 29.81 in 3.0 mi North 16.1 mph - N/A   Overcast
2:15 PM 31.1 °F 20.5 °F 27.1 °F 85% 29.80 in 3.0 mi North 15.0 mph - N/A   Mostly Cloudy
2:35 PM 31.5 °F 20.1 °F 27.3 °F 85% 29.80 in 3.0 mi North 17.3 mph - N/A   Overcast
2:55 PM 31.5 °F 20.5 °F 27.1 °F 84% 29.80 in 3.0 mi North 16.1 mph 20.7 mph N/A   Overcast
3:15 PM 31.3 °F 19.9 °F 27.3 °F 85% 29.80 in 3.0 mi NNW 17.3 mph - N/A   Overcast
3:35 PM 30.9 °F 18.4 °F 27.1 °F 86% 29.81 in 3.0 mi NNW 20.7 mph - N/A   Overcast
3:55 PM 30.7 °F 20.0 °F 27.1 °F 86% 29.82 in 3.0 mi NNW 15.0 mph 19.6 mph N/A   Overcast
4:15 PM 30.7 °F 19.2 °F 27.1 °F 86% 29.82 in 3.0 mi NNW 17.3 mph - N/A   Overcast
4:35 PM 30.7 °F 19.6 °F 27.3 °F 87% 29.83 in 2.0 mi NNW 16.1 mph 20.7 mph N/A Snow Light Snow
4:55 PM 30.6 °F 18.6 °F 27.3 °F 88% 29.83 in 2.5 mi NNW 18.4 mph 23.0 mph N/A Snow Light Snow
5:15 PM 30.4 °F 18.0 °F 27.1 °F 88% 29.83 in 3.0 mi NNW 19.6 mph - N/A   Overcast
5:35 PM 29.8 °F 18.9 °F 26.6 °F 88% 29.85 in 3.0 mi NNW 15.0 mph 19.6 mph N/A   Overcast
5:55 PM 29.7 °F 19.1 °F 26.6 °F 88% 29.86 in 3.0 mi NNW 13.8 mph 20.7 mph N/A   Overcast
6:15 PM 29.8 °F 18.4 °F 26.6 °F 88% 29.86 in 3.0 mi NNW 16.1 mph 20.7 mph N/A   Overcast
6:35 PM 30.0 °F 17.9 °F 26.8 °F 88% 29.87 in 4.0 mi NNW 18.4 mph 23.0 mph N/A   Overcast
6:55 PM 29.8 °F 17.7 °F 26.6 °F 88% 29.87 in 4.0 mi NNW 18.4 mph - N/A   Overcast
7:15 PM 29.8 °F 18.4 °F 26.6 °F 88% 29.88 in 4.0 mi NNW 16.1 mph 24.2 mph N/A   Overcast
7:35 PM 29.8 °F 18.4 °F 26.6 °F 88% 29.89 in 4.0 mi NNW 16.1 mph - N/A   Overcast
7:55 PM 29.7 °F 17.4 °F 26.6 °F 88% 29.89 in 4.0 mi NNW 18.4 mph 24.2 mph N/A   Overcast
8:15 PM 29.7 °F 18.2 °F 26.6 °F 88% 29.89 in 4.0 mi NNW 16.1 mph 21.9 mph N/A   Overcast
8:35 PM 29.3 °F 17.3 °F 26.4 °F 89% 29.90 in 4.0 mi NNW 17.3 mph 20.7 mph N/A   Overcast
8:55 PM 29.3 °F 17.7 °F 26.4 °F 89% 29.91 in 4.0 mi NNW 16.1 mph 21.9 mph N/A   Overcast
9:15 PM 28.9 °F 17.7 °F 26.1 °F 89% 29.91 in 4.0 mi NNW 15.0 mph - N/A   Overcast
9:35 PM 28.6 °F 16.8 °F 25.7 °F 89% 29.92 in 4.0 mi NNW 16.1 mph - N/A   Overcast
9:55 PM 28.2 °F 16.3 °F 25.2 °F 88% 29.92 in 4.0 mi NNW 16.1 mph 20.7 mph N/A   Overcast
10:15 PM 28.0 °F 16.1 °F 25.0 °F 88% 29.92 in 4.0 mi NNW 16.1 mph - N/A   Overcast
10:55 PM 27.9 °F 15.5 °F 24.8 °F 88% 29.92 in 4.0 mi NNW 17.3 mph - N/A   Overcast
11:15 PM 27.5 °F 15.9 °F 24.6 °F 89% 29.93 in 5.0 mi NNW 15.0 mph - N/A   Overcast
11:35 PM 27.5 °F 16.3 °F 24.6 °F 89% 29.93 in 5.0 mi NNW 13.8 mph - N/A   Overcast
11:55 PM 27.5 °F 16.3 °F 24.6 °F 89% 29.93 in 5.0 mi NNW 13.8 mph 18.4 mph N/A   Overcast